KD8UYA Weather Reports


Display with metric or nautical units.
time (UTC)temp
F
wind
direction
speed
MPH
gust
MPH
rain 1hr
in
rain 24hr
in
rain mn
in
humidity
%
barometer
mb
20260904034530 68 302 2.0 6.0 0.02 0.70 0.70 98 1012.2
20260904033013 68 144 3.0 7.0 0.01 0.69 0.69 97 1012.3
20260904031514 68 240 0.0 3.0 0.00 0.68 0.68 97 1012.0
20260904030011 68 249 1.0 5.0 0.00 0.68 0.68 97 1011.7
20260904024511 68 259 0.0 4.0 0.00 0.68 0.68 97 1011.9
20260904023010 68 317 1.0 5.0 0.00 0.68 0.68 97 1012.0
20260904021509 68 254 2.0 7.0 0.00 0.68 0.68 97 1011.7
20260904020008 68 143 1.0 7.0 0.00 0.68 0.68 97 1011.6
20260904014508 68 195 2.0 6.0 0.00 0.68 0.68 97 1011.3
20260904013008 68 87 1.0 9.0 0.00 0.68 0.68 97 1011.5
20260904011521 68 126 3.0 9.0 0.00 0.68 0.68 97 1011.4
20260904010006 68 74 3.0 6.0 0.00 0.68 0.68 97 1011.4
20260904004505 68 85 3.0 7.0 0.00 0.68 0.68 97 1011.5
20260904003004 68 111 5.0 9.0 0.02 0.68 0.68 96 1011.6
20260904001504 68 97 1.0 7.0 0.06 0.68 0.68 96 1011.8
20260904000005 68 110 4.0 8.0 0.12 0.68 0.68 96 1012.0
20260903234502 68 94 3.0 8.0 0.35 0.68 0.68 96 1012.3
20260903233004 68 87 2.0 7.0 0.61 0.66 0.66 96 1012.7
20260903231601 68 27 1.0 10.0 0.60 0.62 0.62 95 1013.7
20260903230058 69 93 2.0 11.0 0.55 0.56 0.56 94 1014.3
20260903224558 69 11 6.0 15.0 0.33 0.35 0.35 92 1013.9
20260903223054 73 244 3.0 25.0 0.03 0.05 0.05 86 1012.9
20260903221552 79 48 1.0 4.0 0.00 0.02 0.02 85 1011.2
20260903214552 81 73 1.0 8.0 0.00 0.02 0.02 82 1010.1
20260903213057 83 26 1.0 5.0 0.00 0.02 0.02 80 1010.7
20260903211554 84 69 0.0 4.0 0.00 0.02 0.02 79 1010.1
20260903210054 84 56 2.0 6.0 0.00 0.02 0.02 77 1009.7
20260903204549 85 78 1.0 9.0 0.00 0.02 0.02 78 1009.1
20260903203109 86 57 2.0 10.0 0.00 0.02 0.02 77 1009.2
20260903201548 85 44 1.0 6.0 0.00 0.02 0.02 79 1009.1
20260903200047 87 66 2.0 6.0 0.00 0.02 0.02 75 1009.2
20260903194554 89 30 3.0 9.0 0.00 0.02 0.02 72 1009.7
20260903193045 91 309 7.0 15.0 0.00 0.02 0.02 62 1009.6
20260903191543 91 325 5.0 11.0 0.00 0.02 0.02 64 1009.6
20260903190039 91 201 6.0 13.0 0.00 0.02 0.02 64 1010.1
20260903184537 90 296 3.0 9.0 0.00 0.02 0.02 68 1010.5
20260903183040 89 284 3.0 10.0 0.00 0.02 0.02 69 1010.6
20260903181531 89 282 6.0 12.0 0.00 0.02 0.02 69 1010.8
20260903180030 89 298 3.0 11.0 0.00 0.02 0.02 70 1010.8
20260903174529 89 221 4.0 11.0 0.00 0.02 0.02 70 1011.1
20260903173025 87 278 3.0 8.0 0.00 0.02 0.02 73 1011.3
20260903171522 87 288 3.0 8.0 0.00 0.02 0.02 75 1011.6
20260903170026 86 282 2.0 11.0 0.00 0.02 0.02 77 1011.7
20260903164520 86 286 4.0 9.0 0.00 0.02 0.02 77 1011.7
20260903163018 86 278 2.0 10.0 0.00 0.02 0.02 77 1011.9
20260903161515 85 288 1.0 7.0 0.00 0.02 0.02 79 1011.9
20260903160011 84 290 1.0 7.0 0.00 0.02 0.02 80 1011.8
20260903154511 84 285 4.0 10.0 0.00 0.02 0.02 82 1011.9
20260903153008 83 288 4.0 8.0 0.00 0.02 0.02 82 1012.1
20260903151507 82 296 4.0 9.0 0.00 0.02 0.02 83 1012.0
20260903150005 80 68 1.0 9.0 0.00 0.02 0.02 86 1012.0
20260903144514 80 266 4.0 9.0 0.00 0.02 0.02 85 1012.1
20260903143100 79 261 0.0 5.0 0.00 0.02 0.02 88 1012.2
20260903141600 78 205 1.0 4.0 0.00 0.02 0.02 89 1012.2
20260903140059 77 233 1.0 3.0 0.00 0.02 0.02 89 1012.2
20260903134600 77 251 0.0 6.0 0.00 0.02 0.02 89 1012.2
20260903133102 76 253 0.0 1.0 0.00 0.02 0.02 90 1012.2
20260903131556 75 255 1.0 4.0 0.00 0.02 0.02 91 1012.3
20260903130058 73 248 0.0 2.0 0.00 0.02 0.02 93 1012.5
20260903124607 72 249 1.0 4.0 0.00 0.02 0.02 94 1012.5
20260903123056 71 142 0.0 0.0 0.00 0.02 0.02 95 1012.4
20260903121600 70 140 0.0 0.0 0.00 0.02 0.02 95 1012.4
20260903120101 69 103 0.0 4.0 0.01 0.02 0.02 95 1012.5
20260903114553 69 95 1.0 6.0 0.02 0.02 0.02 94 1012.5
20260903113130 69 99 2.0 10.0 0.02 0.02 0.02 93 1012.7
20260903111548 70 122 3.0 5.0 0.02 0.02 0.02 91 1012.6
20260903110045 72 99 1.0 6.0 0.01 0.01 0.01 88 1012.7
20260903104556 72 111 4.0 7.0 0.00 0.00 0.00 87 1012.5
20260903103040 73 67 2.0 10.0 0.00 0.00 0.00 87 1012.7
20260903101539 75 92 4.0 10.0 0.00 0.00 0.00 87 1012.6
20260903100040 75 28 4.0 9.0 0.00 0.00 0.00 89 1012.2
20260903094548 75 250 1.0 3.0 0.00 0.00 0.00 89 1011.7
20260903093040 74 246 0.0 0.0 0.00 0.00 0.00 89 1011.6
20260903091547 74 244 0.0 1.0 0.00 0.00 0.00 88 1011.4
20260903090045 74 246 0.0 3.0 0.00 0.00 0.00 88 1011.5
20260903084535 73 313 0.0 3.0 0.00 0.00 0.00 89 1011.2
20260903083035 73 338 0.0 2.0 0.00 0.00 0.00 89 1011.2
20260903081533 73 338 0.0 0.0 0.00 0.00 0.00 89 1011.3
20260903080032 73 338 0.0 1.0 0.00 0.00 0.00 88 1011.4
20260903074536 74 338 0.0 3.0 0.00 0.00 0.00 86 1011.5
20260903073032 75 338 0.0 0.0 0.00 0.00 0.00 84 1011.6
20260903071529 76 338 0.0 0.0 0.00 0.00 0.00 84 1011.4
20260903070023 77 338 0.0 1.0 0.00 0.00 0.00 80 1011.6
20260903064519 78 338 0.0 2.0 0.00 0.00 0.00 78 1011.9
20260903063016 78 333 1.0 4.0 0.00 0.00 0.00 78 1012.1
20260903061514 79 321 4.0 9.0 0.00 0.00 0.00 79 1012.3
20260903060012 80 74 2.0 13.0 0.00 0.00 0.00 83 1012.3
20260903054508 80 257 2.0 4.0 0.00 0.00 0.00 83 1011.5
20260903053015 80 264 2.0 9.0 0.00 0.00 0.00 83 1011.5
20260903051506 80 250 3.0 7.0 0.00 0.00 0.00 82 1011.3
20260903050003 80 273 1.0 8.0 0.00 0.00 0.00 82 1011.0
20260903044502 80 307 1.0 6.0 0.00 0.00 0.00 82 1010.9
20260903043206 80 286 3.0 8.0 0.00 0.00 0.00 81 1010.7
20260903041600 81 261 4.0 9.0 0.00 0.00 0.00 81 1010.5
20260903040054 81 271 5.0 12.0 0.00 0.00 0.00 81 1010.4